Regional Weather Roundup
Issued by NWS State College, PA

Home | Current Version | Previous Version | Graphics & Text | Print | Product List | Glossary Off
Versions: 1 2 3 4 5 6 7 8 9 10 11 12 13 14 15 16 17 18 19 20 21 22 23 24 25 26 27 28 29 30 31 32 33 34 35 36 37 38 39 40 41 42 43 44 45 46 47 48 49 50

000
ASUS41 KCTP 301510
RWRCTP

REGIONAL WEATHER ROUNDUP
NATIONAL WEATHER SERVICE STATE COLLEGE PA
1100 AM EDT SUN AUG 30 2015

Note: "fair" indicates few or no clouds below 12,000 feet with no
significant weather and/or obstructions to visibility.

* = STATION THAT DOES NOT REPORT PRECIPITATION /E.G. RAIN...SNOW...ETC/
    THUNDER OR FOG.

PAZ002>004-007>009-013>016-020>023-029>032-301600-
WESTERN PENNSYLVANIA

CITY           SKY/WX    TMP DP  RH WIND       PRES   REMARKS
ERIE           PTSUNNY   76  64  66 W6        30.11R
MEADVILLE      CLOUDY    70  65  84 SW6       30.15R
FRANKLIN*      CLOUDY    70  66  88 SW7       30.17R
NEW CASTLE     FAIR      74  70  87 CALM      30.15R
BEAVER COUNTY  NOT AVBL
BUTLER*        MOSUNNY   72  66  83 S8        30.17R
PITTSBURGH INT PTSUNNY   72  66  81 SE5       30.15R
PITTSBURGH     MOSUNNY   73  62  68 SE5       30.15S
INDIANA*       MOSUNNY   75  66  73 SW8       30.19S
LATROBE        PTSUNNY   75  66  73 SW6       30.17S
WASHINGTON CO* PTSUNNY   73  66  78 S6        30.17R
$$

PAZ004>006-010>012-017>019-024>028-033>037-041-042-045-046-049>053-301600-
CENTRAL PENNSYLVANIA

CITY           SKY/WX    TMP DP  RH WIND       PRES   REMARKS
BRADFORD       PTSUNNY   72  63  73 W5        30.16R
DUBOIS         PTSUNNY   73  65  75 SW7       30.15S
CLEARFIELD     PTSUNNY   72  62  71 SW7       30.16S
JOHNSTOWN      MOSUNNY   72  63  73 VRB6      30.20R
ALTOONA        MOSUNNY   78  62  57 MISG      30.17S
STATE COLLEGE  SUNNY     75  64  69 CALM      30.15S
WILLIAMSPORT   MOSUNNY   75  61  61 VRB3      30.12S
SELINSGROVE    SUNNY     76  66  71 E3        30.12F
FT INDIANTOWN  SUNNY     77  68  72 VRB5      30.12S
CAPITAL CITY   MOSUNNY   80  65  59 W6        30.12S
HARRISBURG     PTSUNNY   79  66  64 CALM      30.12S
YORK           MOSUNNY   78  67  68 CALM      30.13S
$$

PAZ038>040-043-044-047-048-054-055-060>062-067>071-301600-
EASTERN PENNSYLVANIA

CITY           SKY/WX    TMP DP  RH WIND       PRES   REMARKS
SCRANTON       SUNNY     77  64  64 SW6       30.12F
MOUNT POCONO   SUNNY     76  63  64 W12       30.16S
ALLENTOWN      SUNNY     79  66  64 CALM      30.12S
QUAKERTOWN*    SUNNY     77  66  69 SW3       30.14S
READING        SUNNY     79  66  64 S3        30.12S
LANCASTER      SUNNY     78  66  66 W5        30.13S
COATESVILLE    SUNNY     77  66  69 CALM      30.15S
POTTSTOWN      SUNNY     77  67  71 SW3       30.14S
BLUE BELL      SUNNY     81  68  65 SW3       30.13S
DOYLESTOWN     SUNNY     77  65  66 SW6       30.13R
WILLOW GROVE   NOT AVBL
NORTH PHILA    MOSUNNY   82  63  52 VRB5      30.13F
PHILADELPHIA   PTSUNNY   81  64  56 SW8       30.13F
$$


USA.gov is the U.S. government's official web portal to all federal, state and local government web resources and services.